User: anonymous   Login
Location: Unspecified
(0.0000°N, 0.0000°E)
Time: 03:20:56
(UTC+00:00)
Language:

Orbcomm-X - Orbit

View from above orbital plane
View from above orbital plane
View from above satellite
View from above satellite

Ground track
Ground track

The orbit data is extracted from the following two-line orbital elements,

1 21577U 91050D   18202.64355456 -.00000011  00000-0  11424-4 0  9997
2 21577  98.7555 231.3827 0005213 242.0484 118.0176 14.39420143417876
Epoch (UTC): 21 July 2018 15:26:43
Eccentricity: 0.0005213
inclination: 98.7555°
perigee height: 756 km
apogee height: 764 km
right ascension of ascending node: 231.3827°
argument of perigee: 242.0484°
revolutions per day: 14.39420143
mean anomaly at epoch: 118.0176°
orbit number at epoch: 41787

The dashed part of the orbit path shows where the satellite is in the earth's shadow,  

DLR